Showing default

AEROCUBE 6B, 40046

Orbit data source: Space-Track

AEROCUBE 6B, 40046 is a payload satellite owned by AERO (US) in SSO that was launched on Thu, 19 Jun 2014 UTC via a DNEPR launch vehicle from the Orenburg, Russia (OREN). Payload-class satellites include a variety of spacecraft equipped with specific instruments for various scientific and technological missions. These include communications satellites like Starlink; space stations such as the ISS; scientific satellites like the Hubble; Earth observation satellites from companies like Planet Labs, Umbra, and HawkEye 360; GPS; miniature CubeSats for education and research; and military/defense satellites.

Loading next visibility...
Identifier
40046, 2014-033AN
Orbit
SSO
Country
Flag of USUS
Related business
Manufacturer
AERO
Mission
Operational Defense Technology
Bus & Motor
CUBESAT 0.5U, Unknown motor
Mass
~0.5 kg wet, ~0.5 kg dry
Launch date (UTC)
2014-06-19 (11 years ago)
Launch vehicle
DNEPR
Launch site
Orenburg, Russia (OREN)
Object type
Payload
Rocket body
Debris
Shape & HBR
Box + 2 Pan, 0.1 m
Radar Cross Section
0.010 m², Small (<0.1 m²)

Expand to show TLE details & history
Last TLE update: 1 day ago

TLE from 1 day ago
0 AEROCUBE 6B
1 40046U 14033AN  25241.97449823  .00008270  00000-0  76260-3 0  9996
2 40046  97.6989  47.6917 0039967 261.6980  97.9708 14.94313297603185
Epoch: 2025-08-29T23:23Z
TLE epoch observation values (Epoch: 2025-08-29T23:23:16.647Z)
Latitude
0.00005°
Longitude
78.45688°
Altitude
591.521 km
Speed
7.562 km/s
True Right ascension
03h 10m 46s
True Declination
0° 00' 00"
Sunlit
Object was in daylight at epoch
Visualization orbit readout
Latitude
Unknown
Longitude
Unknown
Altitude
Unknown
Speed
Unknown
Apparent Right ascension
Unknown
Apparent Declination
Unknown
Sunlit
N/A
Visualization observer readout
Local Sidereal Time
16:03:59
Azimuth
Unknown
Elevation
Unknown
Doppler factor
Unknown
Orbital elements
Apogee altitude
609.333 km
Perigee altitude
553.702 km
Semi-major axis
6,959.655 km
Eccentricity
0.004
Inclination
97.6989°
RAAN
47.6917°
Arg. of periapsis
261.698°
True anomaly
98.42404°
Mean anomaly
97.9708°
Eccentric anomaly
98.19745°
Mean motion
3.73819 °/min
Orbital period
96.3 mins
BSTAR
0.0007626
Loading maneuver chart data...
Computing Atmospheric mass density...
Loading historical data...
Loading historical data...
Loading historical data...
Loading historical data...
Loading historical data...
Loading historical data...
Loading historical data...

Documentation

Showing up to 5 results
|